YAHSAT 1A

Last updated on Sun Jul 06 2025 00:02:43 GMT+0000 (Coordinated Universal Time)

1 37393U 11016B 25186.57522988 .00000117 00000+0 00000+0 0 9999 2 37393 0.0226 32.1992 0002866 77.9103 73.2861 1.00269462 38932
UTC large
Height (km)
Speed (km/s)
/
Latitude / Longitude
Inclination (degrees)
Orbital Period (minutes)
Azimuth
Elevation
Range (km)
Doppler Factor

Next 0 passes for location: London (51.5072 / 0.1276)

Sorry there are no passes over London.